RYR351 EGKK-EKCH

Flight info

Callsign RYR351
Flight time 1h 33m
Altitude 39000
Route FRANE M604 PAAVO Q295 SOMVA DCT MAVAS DCT DOSUR DCT TALSA P729 TUDLO
Aircraft B738/M-SDE2E3FGHIRWXY/LB1

Departure

Time 2026-05-04 19:59
Airport London Gatwick Airport (EGKK)

Arrival

Time 2026-05-04 21:32
Airport Copenhagen Kastrup Airport (EKCH)
Time Latitude Longitude Altitude Speed Heading
2026-05-04 19:00 51.15548 -0.17870 210 ft 0 kts 346°
2026-05-04 19:37 51.15543 -0.17868 191 ft 4 kts 345°
2026-05-04 19:37 51.15519 -0.17853 217 ft 4 kts 326°
2026-05-04 19:38 51.15501 -0.17825 213 ft 4 kts 284°
2026-05-04 19:38 51.15500 -0.17806 211 ft 1 kts 257°
2026-05-04 19:42 51.15497 -0.17824 212 ft 4 kts 257°
2026-05-04 19:43 51.15489 -0.17887 214 ft 8 kts 257°
2026-05-04 19:43 51.15474 -0.17997 213 ft 12 kts 258°
2026-05-04 19:43 51.15453 -0.18145 204 ft 13 kts 258°
2026-05-04 19:43 51.15423 -0.18264 207 ft 9 kts 216°
2026-05-04 19:44 51.15352 -0.18262 204 ft 12 kts 170°
2026-05-04 19:44 51.15261 -0.18231 212 ft 15 kts 167°
2026-05-04 19:44 51.15189 -0.18271 207 ft 13 kts 238°
2026-05-04 19:44 51.15175 -0.18421 208 ft 15 kts 258°
2026-05-04 19:45 51.15148 -0.18603 204 ft 19 kts 256°
2026-05-04 19:45 51.15117 -0.18822 209 ft 22 kts 259°
2026-05-04 19:45 51.15086 -0.19069 215 ft 24 kts 257°
2026-05-04 19:45 51.15047 -0.19340 206 ft 26 kts 258°
2026-05-04 19:46 51.15005 -0.19635 203 ft 28 kts 257°
2026-05-04 19:46 51.14963 -0.19948 202 ft 28 kts 258°
2026-05-04 19:46 51.14923 -0.20239 206 ft 26 kts 256°
2026-05-04 19:46 51.14882 -0.20525 209 ft 25 kts 258°
2026-05-04 19:47 51.14848 -0.20778 201 ft 23 kts 258°
2026-05-04 19:47 51.14818 -0.21004 201 ft 21 kts 257°
2026-05-04 19:47 51.14782 -0.21199 204 ft 15 kts 252°
2026-05-04 19:47 51.14764 -0.21310 204 ft 0 kts 259°
2026-05-04 19:48 51.14764 -0.21316 203 ft 2 kts 260°
2026-05-04 19:48 51.14762 -0.21332 201 ft 0 kts 261°
2026-05-04 19:51 51.14761 -0.21342 201 ft 3 kts 261°
2026-05-04 19:51 51.14748 -0.21385 207 ft 6 kts 225°
2026-05-04 19:51 51.14729 -0.21399 203 ft 0 kts 187°
2026-05-04 19:55 51.14720 -0.21400 207 ft 4 kts 182°
2026-05-04 19:55 51.14665 -0.21363 210 ft 9 kts 137°
2026-05-04 19:56 51.14630 -0.21326 204 ft 8 kts 168°
2026-05-04 19:56 51.14617 -0.21322 206 ft 2 kts 169°
2026-05-04 19:56 51.14613 -0.21321 207 ft 0 kts 169°
2026-05-04 19:58 51.14610 -0.21320 204 ft 1 kts 169°
2026-05-04 19:58 51.14593 -0.21314 207 ft 4 kts 168°
2026-05-04 19:58 51.14554 -0.21284 207 ft 9 kts 141°
2026-05-04 19:59 51.14519 -0.21154 204 ft 20 kts 85°
2026-05-04 19:59 51.14623 -0.20408 206 ft 118 kts 77°
2026-05-04 19:59 51.14840 -0.18689 397 ft 187 kts 81°
2026-05-04 19:59 51.14993 -0.16589 1604 ft 190 kts 78°
2026-05-04 20:00 51.15329 -0.14580 3046 ft 184 kts 73°
2026-05-04 20:00 51.15639 -0.12624 4367 ft 180 kts 75°
2026-05-04 20:00 51.15929 -0.10670 4766 ft 176 kts 76°
2026-05-04 20:00 51.16197 -0.08810 5120 ft 169 kts 76°
2026-05-04 20:01 51.16455 -0.06993 5478 ft 168 kts 76°
2026-05-04 20:01 51.16723 -0.05102 5669 ft 192 kts 76°
2026-05-04 20:01 51.16961 -0.02848 5689 ft 220 kts 88°
2026-05-04 20:01 51.16872 -0.00270 5709 ft 243 kts 93°
2026-05-04 20:02 51.16791 0.02465 5688 ft 250 kts 91°
2026-05-04 20:02 51.16738 0.05225 5673 ft 248 kts 91°
2026-05-04 20:02 51.16688 0.07957 5676 ft 247 kts 90°
2026-05-04 20:02 51.16638 0.10686 5670 ft 246 kts 91°
2026-05-04 20:03 51.16588 0.13417 5665 ft 246 kts 91°
2026-05-04 20:03 51.16543 0.16142 5665 ft 246 kts 90°
2026-05-04 20:03 51.16546 0.18861 5667 ft 246 kts 88°
2026-05-04 20:03 51.16559 0.21545 5666 ft 246 kts 88°
2026-05-04 20:04 51.16570 0.24279 5667 ft 247 kts 89°
2026-05-04 20:04 51.16577 0.27021 5733 ft 249 kts 89°
2026-05-04 20:04 51.16582 0.29818 5850 ft 259 kts 89°
2026-05-04 20:04 51.16586 0.32744 5840 ft 261 kts 89°
2026-05-04 20:05 51.16589 0.35598 6120 ft 256 kts 89°
2026-05-04 20:05 51.16592 0.38480 6335 ft 264 kts 89°
2026-05-04 20:05 51.16594 0.41422 6893 ft 267 kts 89°
2026-05-04 20:05 51.16705 0.44383 7583 ft 270 kts 76°
2026-05-04 20:06 51.17542 0.47019 8487 ft 269 kts 48°
2026-05-04 20:06 51.19061 0.48752 9289 ft 273 kts 21°
2026-05-04 20:06 51.20924 0.49414 10078 ft 277 kts
2026-05-04 20:06 51.22852 0.49792 10821 ft 281 kts
2026-05-04 20:07 51.24809 0.50122 11632 ft 284 kts
2026-05-04 20:07 51.26802 0.50430 12447 ft 288 kts
2026-05-04 20:07 51.28794 0.50724 12866 ft 290 kts
2026-05-04 20:07 51.30813 0.51074 13013 ft 294 kts 13°
2026-05-04 20:08 51.32766 0.52087 13055 ft 298 kts 22°
2026-05-04 20:08 51.34732 0.53263 13044 ft 303 kts 21°
2026-05-04 20:08 51.36704 0.54439 13056 ft 303 kts 21°
2026-05-04 20:08 51.38691 0.55627 13508 ft 308 kts 21°
2026-05-04 20:09 51.40704 0.56833 14426 ft 307 kts 21°
2026-05-04 20:09 51.42707 0.58036 15245 ft 311 kts 21°
2026-05-04 20:09 51.44756 0.59268 15966 ft 317 kts 21°
2026-05-04 20:09 51.46836 0.60525 16717 ft 322 kts 21°
2026-05-04 20:10 51.48965 0.61817 17263 ft 336 kts 21°
2026-05-04 20:10 51.51236 0.63200 17436 ft 359 kts 21°
2026-05-04 20:10 51.53643 0.64671 17595 ft 381 kts 21°
2026-05-04 20:10 51.56191 0.66231 17749 ft 401 kts 21°
2026-05-04 20:11 51.58855 0.67870 17886 ft 420 kts 21°
2026-05-04 20:11 51.61630 0.69592 18205 ft 432 kts 21°
2026-05-04 20:11 51.64437 0.71346 18863 ft 433 kts 21°
2026-05-04 20:11 51.67260 0.73115 19401 ft 437 kts 21°
2026-05-04 20:12 51.70109 0.74902 19938 ft 441 kts 21°
2026-05-04 20:12 51.72941 0.76680 20461 ft 444 kts 21°
2026-05-04 20:12 51.75834 0.78476 21005 ft 447 kts 19°
2026-05-04 20:12 51.78793 0.79782 22090 ft 435 kts 12°
2026-05-04 20:13 51.81699 0.80905 22810 ft 426 kts 15°
2026-05-04 20:13 51.84440 0.82551 23060 ft 417 kts 27°
2026-05-04 20:13 51.86762 0.85271 23047 ft 411 kts 49°
2026-05-04 20:13 51.88247 0.89187 23047 ft 407 kts 72°
2026-05-04 20:14 51.88840 0.93624 23071 ft 406 kts 82°
2026-05-04 20:14 51.89574 0.98072 23033 ft 411 kts 70°
2026-05-04 20:14 51.90693 1.02330 23047 ft 412 kts 67°
2026-05-04 20:14 51.91849 1.06597 23045 ft 414 kts 68°
2026-05-04 20:15 51.92987 1.10880 23038 ft 414 kts 68°
2026-05-04 20:15 51.94107 1.15182 23029 ft 414 kts 68°
2026-05-04 20:15 51.95212 1.19486 23044 ft 413 kts 69°
2026-05-04 20:15 51.96307 1.23793 23042 ft 412 kts 69°
2026-05-04 20:16 51.97391 1.28087 23042 ft 412 kts 69°
2026-05-04 20:16 51.98472 1.32379 23049 ft 411 kts 69°
2026-05-04 20:16 51.99551 1.36679 23045 ft 410 kts 69°
2026-05-04 20:16 52.00628 1.40975 23042 ft 410 kts 69°
2026-05-04 20:17 52.01697 1.45250 23043 ft 410 kts 69°
2026-05-04 20:17 52.02756 1.49491 23043 ft 410 kts 69°
2026-05-04 20:17 52.03840 1.53838 23102 ft 421 kts 69°
2026-05-04 20:17 52.04954 1.58318 23312 ft 434 kts 69°
2026-05-04 20:18 52.06092 1.62903 23732 ft 440 kts 69°
2026-05-04 20:18 52.07239 1.67530 24238 ft 442 kts 69°
2026-05-04 20:18 52.08385 1.72161 24763 ft 443 kts 69°
2026-05-04 20:18 52.09539 1.76839 25229 ft 446 kts 69°
2026-05-04 20:19 52.10696 1.81536 25664 ft 450 kts 69°
2026-05-04 20:19 52.11852 1.86240 26093 ft 453 kts 69°
2026-05-04 20:19 52.13028 1.91036 26608 ft 454 kts 69°
2026-05-04 20:19 52.14175 1.95721 27331 ft 448 kts 69°
2026-05-04 20:20 52.15340 2.00492 28155 ft 443 kts 69°
2026-05-04 20:20 52.16465 2.05107 28571 ft 447 kts 69°
2026-05-04 20:20 52.17615 2.09839 28893 ft 452 kts 69°
2026-05-04 20:20 52.18774 2.14621 29289 ft 456 kts 69°
2026-05-04 20:21 52.19944 2.19452 29732 ft 458 kts 69°
2026-05-04 20:21 52.21113 2.24293 30133 ft 460 kts 69°
2026-05-04 20:21 52.23468 2.34077 30789 ft 465 kts 69°
2026-05-04 20:22 52.24647 2.38994 31127 ft 467 kts 69°
2026-05-04 20:22 52.25831 2.43940 31461 ft 468 kts 69°
2026-05-04 20:22 52.27019 2.48915 31751 ft 471 kts 70°
2026-05-04 20:22 52.28212 2.53917 31999 ft 474 kts 70°
2026-05-04 20:23 52.29395 2.58894 32322 ft 475 kts 70°
2026-05-04 20:23 52.30598 2.63970 32823 ft 472 kts 70°
2026-05-04 20:23 52.31661 2.69026 33305 ft 469 kts 74°
2026-05-04 20:23 52.32571 2.74136 33726 ft 467 kts 76°
2026-05-04 20:24 52.33427 2.79256 34085 ft 467 kts 76°
2026-05-04 20:24 52.34274 2.84325 34392 ft 467 kts 76°
2026-05-04 20:24 52.35157 2.89508 34701 ft 467 kts 75°
2026-05-04 20:24 52.36046 2.94631 34995 ft 468 kts 75°
2026-05-04 20:25 52.36928 2.99663 35254 ft 468 kts 75°
2026-05-04 20:25 52.37832 3.04813 35422 ft 472 kts 75°
2026-05-04 20:25 52.38735 3.09982 35661 ft 473 kts 75°
2026-05-04 20:25 52.39769 3.15081 35991 ft 472 kts 68°
2026-05-04 20:26 52.41262 3.19865 36325 ft 472 kts 58°
2026-05-04 20:26 52.43173 3.24222 36608 ft 472 kts 52°
2026-05-04 20:26 52.45179 3.28496 36869 ft 472 kts 52°
2026-05-04 20:26 52.47179 3.32771 37122 ft 473 kts 53°
2026-05-04 20:27 52.49172 3.37067 37440 ft 472 kts 53°
2026-05-04 20:27 52.51147 3.41361 37821 ft 469 kts 53°
2026-05-04 20:27 52.53101 3.45639 38108 ft 469 kts 53°
2026-05-04 20:27 52.55054 3.49940 38333 ft 469 kts 53°
2026-05-04 20:28 52.57009 3.54259 38475 ft 472 kts 53°
2026-05-04 20:28 52.58966 3.58595 38655 ft 473 kts 53°
2026-05-04 20:28 52.60927 3.62946 38892 ft 472 kts 53°
2026-05-04 20:28 52.62878 3.67284 39039 ft 473 kts 53°
2026-05-04 20:29 52.66778 3.75971 39027 ft 474 kts 53°
2026-05-04 20:29 52.70671 3.84673 39038 ft 470 kts 53°
2026-05-04 20:30 52.74531 3.93329 39035 ft 467 kts 53°
2026-05-04 20:30 52.78363 4.01950 39033 ft 464 kts 53°
2026-05-04 20:31 52.82170 4.10544 39030 ft 463 kts 53°
2026-05-04 20:31 52.85971 4.19154 39037 ft 463 kts 53°
2026-05-04 20:32 52.89774 4.27798 39039 ft 465 kts 53°
2026-05-04 20:32 52.93568 4.36450 39051 ft 468 kts 53°
2026-05-04 20:33 52.97393 4.45205 39043 ft 470 kts 54°
2026-05-04 20:33 53.01242 4.54042 39034 ft 472 kts 54°
2026-05-04 20:34 53.05093 4.62918 39031 ft 474 kts 54°
2026-05-04 20:34 53.08948 4.71834 39023 ft 475 kts 54°
2026-05-04 20:35 53.12774 4.80712 39022 ft 475 kts 54°
2026-05-04 20:35 53.16614 4.89657 39024 ft 474 kts 54°
2026-05-04 20:36 53.20443 4.98607 39021 ft 473 kts 54°
2026-05-04 20:36 53.23640 5.06103 39048 ft 472 kts 54°
2026-05-04 20:37 53.28060 5.16502 39034 ft 471 kts 54°
2026-05-04 20:37 53.31838 5.25427 39036 ft 470 kts 54°
2026-05-04 20:38 53.34969 5.32846 39039 ft 469 kts 54°
2026-05-04 20:38 53.38723 5.41771 39036 ft 468 kts 54°
2026-05-04 20:39 53.42470 5.50711 39036 ft 468 kts 54°
2026-05-04 20:39 53.46207 5.59660 39033 ft 468 kts 54°
2026-05-04 20:40 53.49945 5.68642 39031 ft 469 kts 54°
2026-05-04 20:40 53.53674 5.77633 39028 ft 469 kts 54°
2026-05-04 20:41 53.57405 5.86663 39027 ft 470 kts 55°
2026-05-04 20:41 53.61132 5.95715 39035 ft 471 kts 54°
2026-05-04 20:42 53.64844 6.04763 39030 ft 472 kts 54°
2026-05-04 20:42 53.68574 6.13888 39031 ft 473 kts 55°
2026-05-04 20:43 53.72301 6.23041 39035 ft 474 kts 55°
2026-05-04 20:43 53.76032 6.32234 39026 ft 474 kts 55°
2026-05-04 20:44 53.79755 6.41443 39038 ft 474 kts 55°
2026-05-04 20:44 53.83472 6.50669 39045 ft 474 kts 55°
2026-05-04 20:45 53.87187 6.59927 39043 ft 475 kts 55°
2026-05-04 20:45 53.90896 6.69201 39040 ft 474 kts 55°
2026-05-04 20:46 53.94591 6.78477 39032 ft 474 kts 55°
2026-05-04 20:46 53.98251 6.87698 39026 ft 473 kts 55°
2026-05-04 20:47 54.01926 6.96991 39031 ft 473 kts 55°
2026-05-04 20:47 54.05584 7.06276 39047 ft 472 kts 55°
2026-05-04 20:48 54.09245 7.15602 39037 ft 472 kts 55°
2026-05-04 20:48 54.12887 7.24916 39033 ft 472 kts 56°
2026-05-04 20:49 54.16499 7.34189 39034 ft 472 kts 56°
2026-05-04 20:49 54.20127 7.43535 39035 ft 472 kts 56°
2026-05-04 20:50 54.23743 7.52885 39033 ft 472 kts 56°
2026-05-04 20:50 54.27357 7.62266 39051 ft 472 kts 56°
2026-05-04 20:51 54.30960 7.71656 39039 ft 472 kts 56°
2026-05-04 20:51 54.34568 7.81090 39033 ft 473 kts 56°
2026-05-04 20:52 54.38169 7.90545 39033 ft 473 kts 56°
2026-05-04 20:52 54.41767 8.00028 39026 ft 474 kts 56°
2026-05-04 20:53 54.45358 8.09527 39021 ft 474 kts 56°
2026-05-04 20:53 54.48938 8.19034 39029 ft 474 kts 56°
2026-05-04 20:54 54.52519 8.28582 39016 ft 475 kts 56°
2026-05-04 20:54 54.56100 8.38164 39012 ft 475 kts 56°
2026-05-04 20:55 54.59651 8.47705 39007 ft 476 kts 56°
2026-05-04 20:55 54.63216 8.57320 39007 ft 476 kts 56°
2026-05-04 20:56 54.66774 8.66955 38996 ft 476 kts 56°
2026-05-04 20:56 54.70330 8.76620 39018 ft 476 kts 56°
2026-05-04 20:57 54.73873 8.86290 39006 ft 477 kts 56°
2026-05-04 20:57 54.77420 8.96007 38999 ft 477 kts 56°
2026-05-04 20:58 54.80951 9.05720 39000 ft 476 kts 56°
2026-05-04 20:58 54.84479 9.15457 38995 ft 476 kts 56°
2026-05-04 20:59 54.86279 9.20298 38849 ft 479 kts 53°
2026-05-04 20:59 54.88379 9.24794 38363 ft 478 kts 46°
2026-05-04 20:59 54.90608 9.29044 37713 ft 476 kts 45°
2026-05-04 20:59 54.92824 9.33231 37105 ft 476 kts 45°
2026-05-04 21:00 54.95054 9.37502 36418 ft 477 kts 46°
2026-05-04 21:00 54.97261 9.41806 35820 ft 476 kts 46°
2026-05-04 21:00 54.99453 9.46136 35189 ft 476 kts 47°
2026-05-04 21:00 55.01626 9.50463 34697 ft 473 kts 47°
2026-05-04 21:01 55.03782 9.54767 34233 ft 469 kts 47°
2026-05-04 21:01 55.05923 9.59042 33725 ft 466 kts 47°
2026-05-04 21:01 55.08050 9.63293 33199 ft 463 kts 47°
2026-05-04 21:01 55.09992 9.67759 32687 ft 461 kts 57°
2026-05-04 21:02 55.11479 9.72694 32175 ft 460 kts 66°
2026-05-04 21:02 55.12508 9.77975 31670 ft 458 kts 73°
2026-05-04 21:02 55.13407 9.83280 31240 ft 454 kts 73°
2026-05-04 21:02 55.14309 9.88547 30791 ft 451 kts 73°
2026-05-04 21:03 55.15216 9.93769 30331 ft 448 kts 72°
2026-05-04 21:03 55.16129 9.98972 29839 ft 446 kts 72°
2026-05-04 21:03 55.17042 10.04149 29339 ft 443 kts 72°
2026-05-04 21:03 55.17949 10.09281 28862 ft 439 kts 72°
2026-05-04 21:04 55.18849 10.14381 28421 ft 438 kts 72°
2026-05-04 21:04 55.19733 10.19404 27957 ft 437 kts 72°
2026-05-04 21:04 55.20622 10.24471 27494 ft 434 kts 72°
2026-05-04 21:04 55.21503 10.29512 27043 ft 431 kts 72°
2026-05-04 21:05 55.22375 10.34517 26599 ft 428 kts 72°
2026-05-04 21:05 55.23239 10.39487 26161 ft 424 kts 73°
2026-05-04 21:05 55.24091 10.44407 25717 ft 422 kts 73°
2026-05-04 21:05 55.24939 10.49311 25287 ft 419 kts 73°
2026-05-04 21:06 55.25779 10.54181 24858 ft 416 kts 73°
2026-05-04 21:06 55.26615 10.59040 24423 ft 414 kts 73°
2026-05-04 21:06 55.27442 10.63867 23983 ft 412 kts 73°
2026-05-04 21:06 55.28264 10.68662 23565 ft 409 kts 73°
2026-05-04 21:07 55.29078 10.73417 23117 ft 406 kts 73°
2026-05-04 21:07 55.29885 10.78134 22646 ft 403 kts 73°
2026-05-04 21:07 55.30684 10.82821 22233 ft 399 kts 72°
2026-05-04 21:07 55.31476 10.87469 21782 ft 396 kts 72°
2026-05-04 21:08 55.32261 10.92092 21361 ft 393 kts 72°
2026-05-04 21:08 55.33037 10.96680 20940 ft 391 kts 73°
2026-05-04 21:08 55.33800 11.01229 20533 ft 388 kts 73°
2026-05-04 21:08 55.34553 11.05763 20124 ft 385 kts 73°
2026-05-04 21:09 55.35302 11.10278 19711 ft 383 kts 73°
2026-05-04 21:09 55.36041 11.14749 19290 ft 381 kts 73°
2026-05-04 21:09 55.36778 11.19212 18882 ft 379 kts 73°
2026-05-04 21:09 55.37508 11.23647 18481 ft 377 kts 73°
2026-05-04 21:10 55.38238 11.28089 18030 ft 376 kts 73°
2026-05-04 21:10 55.38960 11.32493 17586 ft 374 kts 73°
2026-05-04 21:10 55.39679 11.36889 17148 ft 372 kts 73°
2026-05-04 21:10 55.40389 11.41242 16727 ft 370 kts 73°
2026-05-04 21:11 55.41099 11.45603 16324 ft 368 kts 73°
2026-05-04 21:11 55.41798 11.49902 15934 ft 365 kts 73°
2026-05-04 21:11 55.42496 11.54212 15534 ft 363 kts 73°
2026-05-04 21:11 55.43176 11.58425 15376 ft 354 kts 73°
2026-05-04 21:12 55.43955 11.62483 15189 ft 345 kts 61°
2026-05-04 21:12 55.45440 11.65676 14874 ft 336 kts 37°
2026-05-04 21:12 55.47208 11.68283 14564 ft 334 kts 38°
2026-05-04 21:12 55.48952 11.70976 14221 ft 333 kts 38°
2026-05-04 21:13 55.50686 11.73686 13879 ft 332 kts 38°
2026-05-04 21:13 55.52420 11.76406 13489 ft 332 kts 38°
2026-05-04 21:13 55.54141 11.79109 13114 ft 331 kts 38°
2026-05-04 21:13 55.55858 11.81809 12763 ft 329 kts 38°
2026-05-04 21:14 55.57564 11.84493 12417 ft 328 kts 38°
2026-05-04 21:14 55.59229 11.87118 12472 ft 310 kts 38°
2026-05-04 21:14 55.60792 11.89587 12356 ft 293 kts 38°
2026-05-04 21:14 55.62269 11.91922 12255 ft 276 kts 38°
2026-05-04 21:15 55.63657 11.94115 12142 ft 260 kts 38°
2026-05-04 21:15 55.64968 11.96189 12020 ft 245 kts 37°
2026-05-04 21:15 55.66200 11.98140 11905 ft 232 kts 37°
2026-05-04 21:15 55.67370 11.99991 11799 ft 219 kts 37°
2026-05-04 21:16 55.68481 12.01748 11584 ft 213 kts 37°
2026-05-04 21:16 55.69576 12.03482 11296 ft 211 kts 37°
2026-05-04 21:16 55.70670 12.05216 11001 ft 210 kts 37°
2026-05-04 21:16 55.71756 12.06941 10717 ft 210 kts 37°
2026-05-04 21:17 55.72838 12.08672 10412 ft 210 kts 39°
2026-05-04 21:17 55.73588 12.10896 10055 ft 217 kts 82°
2026-05-04 21:17 55.73458 12.13516 9799 ft 211 kts 102°
2026-05-04 21:17 55.73250 12.16074 9387 ft 216 kts 99°
2026-05-04 21:18 55.73074 12.18739 9056 ft 216 kts 98°
2026-05-04 21:18 55.72908 12.21372 8792 ft 213 kts 98°
2026-05-04 21:18 55.72747 12.23951 8551 ft 208 kts 98°
2026-05-04 21:18 55.72591 12.26473 8324 ft 204 kts 98°
2026-05-04 21:19 55.72435 12.28975 8112 ft 202 kts 98°
2026-05-04 21:19 55.72282 12.31434 7904 ft 200 kts 98°
2026-05-04 21:19 55.72129 12.33880 7701 ft 200 kts 98°
2026-05-04 21:19 55.71975 12.36343 7507 ft 202 kts 98°
2026-05-04 21:20 55.71819 12.38836 7302 ft 204 kts 98°
2026-05-04 21:20 55.71662 12.41328 7084 ft 202 kts 98°
2026-05-04 21:20 55.71506 12.43792 6849 ft 200 kts 98°
2026-05-04 21:20 55.71351 12.46244 6641 ft 199 kts 98°
2026-05-04 21:21 55.71196 12.48672 6431 ft 197 kts 98°
2026-05-04 21:21 55.71100 12.50266 6290 ft 196 kts 95°
2026-05-04 21:21 55.71606 12.53268 5978 ft 193 kts 53°
2026-05-04 21:21 55.72317 12.55441 5260 ft 214 kts 60°
2026-05-04 21:22 55.73010 12.57859 4600 ft 225 kts 61°
2026-05-04 21:22 55.73479 12.59515 4195 ft 228 kts 61°
2026-05-04 21:22 55.74382 12.62704 3995 ft 205 kts 61°
2026-05-04 21:22 55.75065 12.64813 3840 ft 188 kts 44°
2026-05-04 21:23 55.75694 12.65797 3715 ft 178 kts 33°
2026-05-04 21:23 55.76952 12.67633 3294 ft 176 kts 37°
2026-05-04 21:23 55.77572 12.68582 3086 ft 174 kts 37°
2026-05-04 21:23 55.78484 12.69988 2777 ft 172 kts 37°
2026-05-04 21:24 55.79383 12.71379 2484 ft 170 kts 37°
2026-05-04 21:24 55.80263 12.72748 2190 ft 167 kts 38°
2026-05-04 21:24 55.81429 12.74564 2049 ft 171 kts 38°
2026-05-04 21:24 55.82035 12.75509 2014 ft 172 kts 38°
2026-05-04 21:25 55.83200 12.77332 1991 ft 166 kts 38°
2026-05-04 21:25 55.83786 12.78248 1988 ft 166 kts 38°
2026-05-04 21:25 55.84607 12.79715 1981 ft 171 kts 55°
2026-05-04 21:25 55.84758 12.81760 2004 ft 171 kts 107°
2026-05-04 21:26 55.84046 12.83361 2000 ft 166 kts 151°
2026-05-04 21:26 55.82980 12.83875 2004 ft 157 kts 175°
2026-05-04 21:26 55.81924 12.84177 1996 ft 154 kts 173°
2026-05-04 21:26 55.80861 12.84495 2012 ft 156 kts 173°
2026-05-04 21:27 55.79782 12.84810 2006 ft 158 kts 174°
2026-05-04 21:27 55.78663 12.85129 2043 ft 178 kts 174°
2026-05-04 21:27 55.77441 12.85476 2001 ft 180 kts 173°
2026-05-04 21:27 55.76190 12.85833 2009 ft 181 kts 173°
2026-05-04 21:28 55.74969 12.85889 1969 ft 166 kts 201°
2026-05-04 21:28 55.74170 12.84714 2009 ft 145 kts 234°
2026-05-04 21:28 55.73440 12.83559 2004 ft 142 kts 218°
2026-05-04 21:28 55.72647 12.82486 2002 ft 144 kts 226°
2026-05-04 21:29 55.71922 12.81319 2029 ft 139 kts 226°
2026-05-04 21:29 55.71197 12.80176 2007 ft 139 kts 226°
2026-05-04 21:29 55.70456 12.79020 2011 ft 143 kts 225°
2026-05-04 21:29 55.69703 12.77852 1925 ft 145 kts 225°
2026-05-04 21:30 55.68944 12.76678 1734 ft 145 kts 225°
2026-05-04 21:30 55.68194 12.75517 1537 ft 143 kts 225°
2026-05-04 21:30 55.67448 12.74362 1350 ft 142 kts 225°
2026-05-04 21:30 55.66713 12.73225 1152 ft 137 kts 225°
2026-05-04 21:31 55.65348 12.71109 792 ft 127 kts 224°
2026-05-04 21:31 55.64689 12.70076 603 ft 129 kts 224°
2026-05-04 21:31 55.64016 12.69002 417 ft 128 kts 223°
2026-05-04 21:32 55.63353 12.67998 229 ft 127 kts 221°
2026-05-04 21:32 55.62686 12.66980 48 ft 125 kts 223°
2026-05-04 21:32 55.62085 12.66039 15 ft 92 kts 221°
2026-05-04 21:32 55.61758 12.65538 18 ft 36 kts 221°
2026-05-04 21:33 55.61606 12.65215 16 ft 27 kts 263°
2026-05-04 21:33 55.61604 12.65167 17 ft 0 kts 268°
2026-05-04 21:34 55.61604 12.65153 17 ft 4 kts 268°
2026-05-04 21:34 55.61609 12.65060 16 ft 12 kts 289°
2026-05-04 21:34 55.61655 12.64921 15 ft 14 kts 309°
2026-05-04 21:34 55.61724 12.64825 18 ft 10 kts 331°
2026-05-04 21:35 55.61792 12.64789 18 ft 10 kts 353°
2026-05-04 21:35 55.61863 12.64802 16 ft 11 kts 17°
2026-05-04 21:35 55.61931 12.64862 18 ft 11 kts 31°
2026-05-04 21:35 55.61994 12.64934 19 ft 11 kts 33°
2026-05-04 21:36 55.62056 12.65005 21 ft 10 kts 33°
2026-05-04 21:36 55.62116 12.65073 24 ft 10 kts 33°
2026-05-04 21:36 55.62174 12.65139 27 ft 10 kts 32°
2026-05-04 21:36 55.62238 12.65197 22 ft 11 kts 12°
2026-05-04 21:37 55.62316 12.65195 21 ft 12 kts 356°
2026-05-04 21:37 55.62395 12.65190 20 ft 9 kts
2026-05-04 21:37 55.62437 12.65271 18 ft 11 kts 84°
2026-05-04 21:37 55.62439 12.65405 17 ft 11 kts 86°
2026-05-04 21:38 55.62444 12.65521 17 ft 8 kts 80°
2026-05-04 21:38 55.62459 12.65561 18 ft 4 kts 40°
2026-05-04 21:38 55.62466 12.65567 17 ft 0 kts 21°
2026-05-04 21:38 55.62471 12.65563 17 ft 3 kts 342°
2026-05-04 21:39 55.62496 12.65558 17 ft 3 kts 13°
2026-05-04 21:39 55.62511 12.65566 17 ft 1 kts 14°
2026-05-04 21:39 55.62518 12.65570 16 ft 1 kts 17°
2026-05-04 21:39 55.62520 12.65571 16 ft 0 kts 18°